Date String (YYYY-MM-DD hh:mm:ss) UTC,Instrument flags,absolute air pressure of the measurement (hPa),sample flow rate (lpm),inlet stack bypass flow (lpm),air temperature of the measurement (°C),ambient temperature measured by the external sensor (°C),aerosol sample conditioner tube jacket temperature (°C),OPC LED temperature (°C),internal box temperature (°C),relative humidity of the measurement (%),span deviation,mass concentration of particles derived from Lorenz-Mie calculation of OPC scattering (μg/m³),mass concentration of particles derived from Lorenz-Mie calculation of OPC scattering (μg/m³),mass concentration of particles derived from Lorenz-Mie calculation of OPC scattering (μg/m³)
DateTimeUTC,F1_M11,P_M11,Q1_M11,Q2_M11,T1_M11,T2_M11,T3_M11,T4_M11,T5_M11,U1_M11,ZSPAN_M11,X2_M11,X0_M11,X1_M11
2023-07-17 15:00:00,SystemResetWarning,0834.6,5.00,000.00,029.0,027.1,000.0,037.4,030.6,27.1,0000.3,0005.86,0012.35,0005.27
2023-07-17 15:01:00,SystemResetWarning,0834.9,5.00,000.00,029.1,027.4,000.0,037.5,030.7,27.2,-000.1,0005.90,0013.26,0005.31
2023-07-17 15:02:00,SystemResetWarning,0834.7,4.99,000.00,029.1,027.6,000.0,037.5,030.7,26.9,0000.0,0005.95,0015.60,0005.35
2023-07-17 15:03:00,SystemResetWarning,0835.0,4.99,000.00,029.1,027.8,000.0,037.5,030.8,27.2,0000.0,0006.04,0016.66,0005.39
2023-07-17 15:04:00,SystemResetWarning,0835.1,4.99,000.00,029.1,026.9,000.0,037.4,030.8,27.4,0000.0,0006.07,0018.49,0005.41
2023-07-17 15:05:00,SystemResetWarning,0834.9,5.00,000.00,029.1,025.4,000.0,037.3,030.5,28.0,-000.2,0006.13,0018.72,0005.45
2023-07-17 15:06:00,SystemResetWarning,0834.6,5.01,000.00,029.0,025.2,000.0,037.2,030.4,27.9,-000.3,0006.18,0018.17,0005.49
2023-07-17 15:07:00,SystemResetWarning,0834.8,5.01,000.00,028.9,025.5,000.0,037.3,030.3,28.1,-000.6,0006.24,0017.73,0005.53
2023-07-17 15:08:00,SystemResetWarning,0835.1,4.99,000.00,028.9,025.9,000.0,037.3,030.3,28.6,-000.5,0006.32,0017.88,0005.59
2023-07-17 15:09:00,SystemResetWarning,0835.1,5.00,000.00,028.9,026.3,000.0,037.4,030.4,28.6,-000.2,0006.40,0018.73,0005.65
2023-07-17 15:10:00,SystemResetWarning,0835.1,5.00,000.00,028.9,026.7,000.0,037.4,030.5,27.8,-000.6,0006.42,0019.22,0005.68
2023-07-17 15:11:00,SystemResetWarning,0835.0,5.01,000.00,029.0,027.0,000.0,037.4,030.5,28.4,-000.5,0006.45,0019.12,0005.71
2023-07-17 15:12:00,SystemResetWarning,0834.6,5.00,000.00,029.0,027.3,000.0,037.4,030.6,27.2,-000.3,0006.49,0018.30,0005.73
2023-07-17 15:13:00,SystemResetWarning,0834.6,4.99,000.00,029.0,027.5,000.0,037.4,030.7,26.1,-000.4,0006.54,0016.35,0005.73
2023-07-17 15:14:00,SystemResetWarning,0834.6,4.99,000.00,029.1,027.7,000.0,037.4,030.8,26.5,0000.1,0006.51,0015.68,0005.75
2023-07-17 15:15:00,SystemResetWarning,0834.6,4.98,000.00,029.1,027.1,000.0,037.4,030.7,26.8,0000.2,0006.48,0014.37,0005.77
2023-07-17 15:16:00,SystemResetWarning,0834.9,5.00,000.00,029.0,025.6,000.0,037.3,030.4,26.6,0000.3,0006.48,0014.22,0005.78
2023-07-17 15:17:00,SystemResetWarning,0835.0,5.00,000.00,028.9,025.1,000.0,037.2,030.3,26.3,0000.3,0006.52,0014.55,0005.79
2023-07-17 15:18:00,SystemResetWarning,0834.9,5.01,000.00,028.9,025.5,000.0,037.2,030.2,26.8,0000.7,0006.51,0014.52,0005.78
2023-07-17 15:19:00,SystemResetWarning,0834.7,5.00,000.00,028.8,025.9,000.0,037.2,030.2,26.9,0000.8,0006.48,0014.81,0005.77
2023-07-17 15:20:00,SystemResetWarning,0834.6,4.99,000.00,028.8,026.3,000.0,037.3,030.3,27.3,0000.9,0006.47,0014.11,0005.76
2023-07-17 15:21:00,SystemResetWarning,0834.7,5.00,000.00,028.9,026.6,000.0,037.3,030.4,26.5,0001.5,0006.46,0013.90,0005.77
2023-07-17 15:22:00,SystemResetWarning,0834.9,5.00,000.00,028.9,027.0,000.0,037.3,030.5,27.1,0001.5,0006.51,0014.33,0005.80
2023-07-17 15:23:00,SystemResetWarning,0835.0,5.01,000.00,028.9,027.2,000.0,037.3,030.6,26.9,0001.4,0006.56,0014.60,0005.84
2023-07-17 15:24:00,SystemResetWarning,0835.1,5.01,000.00,029.0,027.5,000.0,037.4,030.6,26.1,0001.6,0006.55,0014.47,0005.88
2023-07-17 15:25:00,SystemResetWarning,0835.0,4.99,000.00,029.0,027.6,000.0,037.4,030.7,25.2,0001.4,0006.59,0014.46,0005.92
2023-07-17 15:26:00,SystemResetWarning,0835.0,4.98,000.00,029.0,026.5,000.0,037.3,030.5,24.6,0001.3,0006.63,0015.01,0005.94
2023-07-17 15:27:00,SystemResetWarning,0834.5,5.01,000.00,028.9,025.2,000.0,037.2,030.3,24.5,0001.6,0006.67,0015.45,0005.97
2023-07-17 15:28:00,SystemResetWarning,0834.5,5.01,000.00,028.9,025.2,000.0,037.1,030.2,25.0,0002.1,0006.67,0015.11,0006.00
2023-07-17 15:29:00,SystemResetWarning,0834.5,5.01,000.00,028.8,025.6,000.0,037.1,030.2,25.0,0001.4,0006.67,0014.87,0006.03
2023-07-17 15:30:00,SystemResetWarning,0834.5,5.00,000.00,028.8,026.0,000.0,037.2,030.2,24.6,0000.8,0006.71,0014.25,0006.07
2023-07-17 15:31:00,SystemResetWarning,0834.5,5.00,000.00,028.8,026.4,000.0,037.2,030.3,23.8,0001.0,0006.72,0013.86,0006.10
2023-07-17 15:32:00,SystemResetWarning,0834.5,5.00,000.00,028.8,026.7,000.0,037.2,030.4,25.4,0001.1,0006.78,0013.43,0006.15
2023-07-17 15:33:00,SystemResetWarning,0834.7,5.00,000.00,028.8,027.0,000.0,037.3,030.5,24.9,0001.2,0006.80,0014.79,0006.18
2023-07-17 15:34:00,SystemResetWarning,0834.8,5.00,000.00,028.9,027.3,000.0,037.3,030.5,23.9,0001.6,0006.81,0015.83,0006.20
2023-07-17 15:35:00,SystemResetWarning,0835.0,5.00,000.00,028.9,027.5,000.0,037.3,030.6,23.9,0001.9,0006.85,0016.20,0006.24
2023-07-17 15:36:00,SystemResetWarning,0835.0,4.99,000.00,029.0,027.4,000.0,037.3,030.7,23.7,0001.2,0006.93,0016.65,0006.31
2023-07-17 15:37:00,SystemResetWarning,0834.7,4.99,000.00,029.0,025.9,000.0,037.2,030.5,23.5,0000.9,0007.02,0016.13,0006.40
2023-07-17 15:38:00,SystemResetWarning,0834.6,5.00,000.00,028.9,025.1,000.0,037.1,030.3,24.8,0000.3,0007.08,0016.05,0006.47
2023-07-17 15:39:00,SystemResetWarning,0834.5,5.01,000.00,028.8,025.4,000.0,037.0,030.2,24.3,0000.0,0007.13,0016.26,0006.53
2023-07-17 15:40:00,SystemResetWarning,0834.8,5.00,000.00,028.8,025.7,000.0,037.1,030.2,23.9,0000.2,0007.19,0016.52,0006.59
2023-07-17 15:41:00,SystemResetWarning,0834.8,4.99,000.00,028.8,026.1,000.0,037.1,030.2,24.6,0000.3,0007.22,0016.64,0006.64
2023-07-17 15:42:00,SystemResetWarning,0835.0,5.00,000.00,028.8,026.5,000.0,037.2,030.3,25.1,-000.1,0007.31,0016.51,0006.71
2023-07-17 15:43:00,SystemResetWarning,0834.5,5.02,000.00,028.8,026.8,000.0,037.2,030.4,24.5,-000.3,0007.39,0016.62,0006.76
2023-07-17 15:44:00,SystemResetWarning,0834.5,5.00,000.00,028.8,027.1,000.0,037.2,030.5,24.9,-000.2,0007.46,0016.69,0006.82
2023-07-17 15:45:00,SystemResetWarning,0834.5,4.99,000.00,028.9,027.4,000.0,037.3,030.6,25.3,-000.3,0007.50,0015.87,0006.89
2023-07-17 15:46:00,SystemResetWarning,0834.5,5.00,000.00,028.9,027.6,000.0,037.3,030.6,25.7,-000.3,0007.54,0015.72,0006.94
2023-07-17 15:47:00,SystemResetWarning,0834.5,4.99,000.00,029.0,027.0,000.0,037.2,030.6,25.5,0000.0,0007.54,0014.78,0006.97
2023-07-17 15:48:00,SystemResetWarning,0834.4,5.00,000.00,028.9,025.4,000.0,037.1,030.3,25.6,0000.2,0007.56,0014.56,0006.99
2023-07-17 15:49:00,SystemResetWarning,0834.4,5.01,000.00,028.8,025.1,000.0,037.0,030.2,26.0,0000.5,0007.59,0014.40,0007.01
2023-07-17 15:50:00,SystemResetWarning,0834.4,5.01,000.00,028.8,025.4,000.0,037.0,030.1,26.7,0000.3,0007.64,0014.70,0007.04
2023-07-17 15:51:00,SystemResetWarning,0834.4,4.98,000.00,028.7,025.8,000.0,037.1,030.2,27.0,0000.3,0007.70,0014.70,0007.10
2023-07-17 15:52:00,SystemResetWarning,0834.4,4.99,000.00,028.7,026.2,000.0,037.1,030.2,27.1,0000.5,0007.75,0015.40,0007.14
2023-07-17 15:53:00,SystemResetWarning,0834.4,5.01,000.00,028.8,026.6,000.0,037.2,030.3,26.9,0000.7,0007.78,0015.39,0007.20
2023-07-17 15:54:00,SystemResetWarning,0834.4,5.00,000.00,028.8,026.9,000.0,037.2,030.4,27.5,0000.6,0007.84,0015.30,0007.29
2023-07-17 15:55:00,SystemResetWarning,0834.5,5.00,000.00,028.8,027.2,000.0,037.2,030.5,26.5,0000.5,0007.90,0014.05,0007.36
2023-07-17 15:56:00,SystemResetWarning,0834.4,4.99,000.00,028.9,027.5,000.0,037.2,030.6,26.6,0000.2,0007.98,0013.46,0007.45
2023-07-17 15:57:00,SystemResetWarning,0834.4,4.99,000.00,028.9,027.1,000.0,037.2,030.6,26.7,-000.0,0008.09,0013.52,0007.52
2023-07-17 15:58:00,SystemResetWarning,0834.4,5.00,000.00,028.9,025.6,000.0,037.1,030.3,27.0,-000.2,0008.15,0013.70,0007.57
2023-07-17 15:59:00,SystemResetWarning,0834.4,5.01,000.00,028.8,025.1,000.0,037.0,030.2,26.9,-000.1,0008.13,0013.64,0007.60
